Year,Month,Day,Hour,Minute,Value (Times are PST for windgust in km/hr)
2015,11,16,00,00,8.10
2015,11,16,00,01,6.40
2015,11,16,00,02,6.40
2015,11,16,00,03,6.40
2015,11,16,00,04,4.80
2015,11,16,00,05,3.20
2015,11,16,00,06,3.20
2015,11,16,00,07,4.80
2015,11,16,00,08,4.80
2015,11,16,00,09,4.80
2015,11,16,00,10,4.80
2015,11,16,00,11,4.80
2015,11,16,00,12,3.20
2015,11,16,00,13,3.20
2015,11,16,00,15,4.80
2015,11,16,00,16,3.20
2015,11,16,00,17,3.20
2015,11,16,00,18,3.20
2015,11,16,00,19,4.80
2015,11,16,00,20,3.20
2015,11,16,00,21,4.80
2015,11,16,00,22,4.80
2015,11,16,00,23,4.80
2015,11,16,00,24,4.80
2015,11,16,00,25,4.80
2015,11,16,00,26,4.80
2015,11,16,00,27,4.80
2015,11,16,00,28,4.80
2015,11,16,00,29,6.40
2015,11,16,00,30,6.40
2015,11,16,00,31,6.40
2015,11,16,00,32,6.40
2015,11,16,00,33,8.10
2015,11,16,00,34,6.40
2015,11,16,00,35,6.40
2015,11,16,00,36,6.40
2015,11,16,00,37,8.10
2015,11,16,00,38,8.10
2015,11,16,00,39,8.10
2015,11,16,00,40,8.10
2015,11,16,00,41,8.10
2015,11,16,00,42,8.10
2015,11,16,00,43,8.10
2015,11,16,00,44,8.10
2015,11,16,00,45,9.60
2015,11,16,00,46,8.10
2015,11,16,00,47,9.60
2015,11,16,00,48,11.30
2015,11,16,00,49,11.30
2015,11,16,00,50,8.10
2015,11,16,00,51,8.10
2015,11,16,00,52,9.60
2015,11,16,00,53,9.60
2015,11,16,00,54,11.30
2015,11,16,00,55,11.30
2015,11,16,00,56,16.10
2015,11,16,00,57,9.60
2015,11,16,00,58,12.90
2015,11,16,00,59,12.90
2015,11,16,01,00,11.30
2015,11,16,01,01,14.50
2015,11,16,01,02,14.50
2015,11,16,01,03,16.10
2015,11,16,01,04,16.10
2015,11,16,01,05,16.10
2015,11,16,01,06,12.90
2015,11,16,01,07,14.50
2015,11,16,01,08,19.30
2015,11,16,01,09,12.90
2015,11,16,01,10,14.50
2015,11,16,01,11,14.50
2015,11,16,01,12,12.90
2015,11,16,01,13,14.50
2015,11,16,01,14,14.50
2015,11,16,01,15,12.90
2015,11,16,01,16,14.50
2015,11,16,01,17,16.10
2015,11,16,01,18,16.10
2015,11,16,01,19,16.10
2015,11,16,01,20,17.70
2015,11,16,01,21,17.70
2015,11,16,01,22,17.70
2015,11,16,01,23,19.30
2015,11,16,01,24,17.70
2015,11,16,01,25,17.70
2015,11,16,01,26,17.70
2015,11,16,01,27,16.10
2015,11,16,01,28,16.10
2015,11,16,01,29,16.10
2015,11,16,01,30,17.70
2015,11,16,01,31,19.30
2015,11,16,01,32,17.70
2015,11,16,01,33,16.10
2015,11,16,01,34,17.70
2015,11,16,01,35,17.70
2015,11,16,01,36,19.30
2015,11,16,01,37,19.30
2015,11,16,01,38,22.50
2015,11,16,01,39,25.70
2015,11,16,01,40,24.20
2015,11,16,01,41,24.20
2015,11,16,01,42,20.90
2015,11,16,01,43,22.50
2015,11,16,01,44,24.20
2015,11,16,01,45,22.50
2015,11,16,01,46,24.20
2015,11,16,01,47,24.20
2015,11,16,01,48,25.70
2015,11,16,01,49,24.20
2015,11,16,01,50,22.50
2015,11,16,01,51,27.40
2015,11,16,01,52,29.00
2015,11,16,01,53,22.50
2015,11,16,01,54,20.90
2015,11,16,01,55,22.50
2015,11,16,01,56,20.90
2015,11,16,01,57,20.90
2015,11,16,01,58,22.50
2015,11,16,01,59,22.50
2015,11,16,02,00,20.90
2015,11,16,02,01,25.70
2015,11,16,02,02,22.50
2015,11,16,02,03,22.50
2015,11,16,02,04,24.20
2015,11,16,02,05,22.50
2015,11,16,02,06,20.90
2015,11,16,02,07,20.90
2015,11,16,02,08,20.90
2015,11,16,02,09,20.90
2015,11,16,02,10,22.50
2015,11,16,02,11,22.50
2015,11,16,02,12,19.30
2015,11,16,02,13,22.50
2015,11,16,02,14,22.50
2015,11,16,02,15,20.90
2015,11,16,02,16,20.90
2015,11,16,02,17,22.50
2015,11,16,02,18,22.50
2015,11,16,02,19,25.70
2015,11,16,02,20,24.20
2015,11,16,02,21,27.40
2015,11,16,02,22,20.90
2015,11,16,02,23,24.20
2015,11,16,02,24,25.70
2015,11,16,02,25,25.70
2015,11,16,02,26,25.70
2015,11,16,02,27,24.20
2015,11,16,02,28,24.20
2015,11,16,02,29,24.20
2015,11,16,02,30,24.20
2015,11,16,02,31,24.20
2015,11,16,02,32,22.50
2015,11,16,02,33,20.90
2015,11,16,02,34,20.90
2015,11,16,02,35,20.90
2015,11,16,02,36,20.90
2015,11,16,02,37,20.90
2015,11,16,02,38,19.30
2015,11,16,02,39,20.90
2015,11,16,02,40,19.30
2015,11,16,02,41,19.30
2015,11,16,02,42,17.70
2015,11,16,02,43,17.70
2015,11,16,02,44,19.30
2015,11,16,02,45,17.70
2015,11,16,02,46,17.70
2015,11,16,02,47,16.10
2015,11,16,02,48,17.70
2015,11,16,02,49,19.30
2015,11,16,02,50,19.30
2015,11,16,02,51,19.30
2015,11,16,02,52,19.30
2015,11,16,02,53,17.70
2015,11,16,02,54,16.10
2015,11,16,02,55,17.70
2015,11,16,02,56,19.30
2015,11,16,02,57,19.30
2015,11,16,02,58,19.30
2015,11,16,02,59,19.30
2015,11,16,03,00,19.30
2015,11,16,03,01,17.70
2015,11,16,03,02,17.70
2015,11,16,03,03,17.70
2015,11,16,03,04,17.70
2015,11,16,03,05,14.50
2015,11,16,03,06,12.90
2015,11,16,03,07,11.30
2015,11,16,03,08,12.90
2015,11,16,03,09,12.90
2015,11,16,03,10,14.50
2015,11,16,03,11,14.50
2015,11,16,03,12,14.50
2015,11,16,03,13,16.10
2015,11,16,03,14,17.70
2015,11,16,03,15,19.30
2015,11,16,03,16,19.30
2015,11,16,03,17,17.70
2015,11,16,03,18,17.70
2015,11,16,03,19,19.30
2015,11,16,03,20,19.30
2015,11,16,03,21,17.70
2015,11,16,03,22,19.30
2015,11,16,03,23,19.30
2015,11,16,03,24,20.90
2015,11,16,03,25,19.30
2015,11,16,03,26,17.70
2015,11,16,03,27,17.70
2015,11,16,03,28,17.70
2015,11,16,03,29,19.30
2015,11,16,03,30,16.10
2015,11,16,03,31,16.10
2015,11,16,03,32,16.10
2015,11,16,03,33,16.10
2015,11,16,03,34,16.10
2015,11,16,03,35,14.50
2015,11,16,03,36,14.50
2015,11,16,03,37,14.50
2015,11,16,03,38,12.90
2015,11,16,03,39,14.50
2015,11,16,03,40,14.50
2015,11,16,03,41,12.90
2015,11,16,03,42,14.50
2015,11,16,03,43,14.50
2015,11,16,03,44,12.90
2015,11,16,03,45,12.90
2015,11,16,03,46,12.90
2015,11,16,03,47,12.90
2015,11,16,03,48,12.90
2015,11,16,03,49,11.30
2015,11,16,03,50,11.30
2015,11,16,03,51,11.30
2015,11,16,03,52,11.30
2015,11,16,03,53,9.60
2015,11,16,03,54,11.30
2015,11,16,03,55,12.90
2015,11,16,03,56,9.60
2015,11,16,03,57,9.60
2015,11,16,03,58,9.60
2015,11,16,03,59,8.10
2015,11,16,04,00,8.10
2015,11,16,04,01,8.10
2015,11,16,04,02,8.10
2015,11,16,04,03,6.40
2015,11,16,04,04,4.80
2015,11,16,04,05,6.40
2015,11,16,04,06,4.80
2015,11,16,04,07,6.40
2015,11,16,04,08,4.80
2015,11,16,04,09,4.80
2015,11,16,04,10,4.80
2015,11,16,04,11,4.80
2015,11,16,04,12,3.20
2015,11,16,04,13,4.80
2015,11,16,04,14,3.20
2015,11,16,04,15,3.20
2015,11,16,04,16,3.20
2015,11,16,04,17,3.20
2015,11,16,04,25,4.80
2015,11,16,04,26,4.80
2015,11,16,04,27,4.80
2015,11,16,04,28,4.80
2015,11,16,04,29,4.80
2015,11,16,04,30,1.60
2015,11,16,04,31,4.80
2015,11,16,04,32,4.80
2015,11,16,04,33,4.80
2015,11,16,04,34,4.80
2015,11,16,04,35,4.80
2015,11,16,04,36,4.80
2015,11,16,04,37,8.10
2015,11,16,04,38,4.80
2015,11,16,04,41,4.80
2015,11,16,04,42,3.20
2015,11,16,04,43,3.20
2015,11,16,04,44,4.80
2015,11,16,05,15,4.80
2015,11,16,05,16,6.40
2015,11,16,05,17,8.10
2015,11,16,05,18,6.40
2015,11,16,05,19,8.10
2015,11,16,05,20,6.40
2015,11,16,05,21,9.60
2015,11,16,05,22,11.30
2015,11,16,05,23,11.30
2015,11,16,05,24,11.30
2015,11,16,05,25,16.10
2015,11,16,05,26,14.50
2015,11,16,05,27,11.30
2015,11,16,05,28,16.10
2015,11,16,05,29,14.50
2015,11,16,05,30,16.10
2015,11,16,05,31,16.10
2015,11,16,05,32,16.10
2015,11,16,05,33,17.70
2015,11,16,05,34,19.30
2015,11,16,05,35,17.70
2015,11,16,05,36,17.70
2015,11,16,05,37,17.70
2015,11,16,05,38,16.10
2015,11,16,05,39,16.10
2015,11,16,05,40,16.10
2015,11,16,05,41,12.90
2015,11,16,05,42,16.10
2015,11,16,05,43,16.10
2015,11,16,05,44,12.90
2015,11,16,05,45,12.90
2015,11,16,05,46,19.30
2015,11,16,05,47,20.90
2015,11,16,05,48,22.50
2015,11,16,05,49,24.20
2015,11,16,05,50,22.50
2015,11,16,05,51,24.20
2015,11,16,05,52,24.20
2015,11,16,05,53,24.20
2015,11,16,05,54,24.20
2015,11,16,05,55,24.20
2015,11,16,05,56,25.70
2015,11,16,05,57,25.70
2015,11,16,05,58,25.70
2015,11,16,05,59,25.70
2015,11,16,06,00,25.70
2015,11,16,06,01,24.20
2015,11,16,06,02,24.20
2015,11,16,06,03,24.20
2015,11,16,06,04,24.20
2015,11,16,06,05,24.20
2015,11,16,06,06,24.20
2015,11,16,06,07,22.50
2015,11,16,06,08,24.20
2015,11,16,06,09,24.20
2015,11,16,06,10,22.50
2015,11,16,06,11,22.50
2015,11,16,06,12,20.90
2015,11,16,06,13,24.20
2015,11,16,06,14,24.20
2015,11,16,06,15,27.40
2015,11,16,06,16,27.40
2015,11,16,06,17,25.70
2015,11,16,06,18,27.40
2015,11,16,06,19,27.40
2015,11,16,06,20,27.40
2015,11,16,06,21,27.40
2015,11,16,06,22,32.20
2015,11,16,06,23,32.20
2015,11,16,06,24,30.60
2015,11,16,06,25,30.60
2015,11,16,06,26,33.80
2015,11,16,06,27,33.80
2015,11,16,06,28,35.40
2015,11,16,06,29,37.00
2015,11,16,06,30,41.80
2015,11,16,06,31,38.60
2015,11,16,06,32,35.40
2015,11,16,06,33,38.60
2015,11,16,06,34,38.60
2015,11,16,06,35,40.20
2015,11,16,06,36,43.50
2015,11,16,06,37,41.80
2015,11,16,06,38,41.80
2015,11,16,06,39,43.50
2015,11,16,06,40,43.50
2015,11,16,06,41,48.30
2015,11,16,06,42,49.90
2015,11,16,06,43,48.30
2015,11,16,06,44,46.70
2015,11,16,06,45,46.70
2015,11,16,06,46,41.80
2015,11,16,06,47,43.50
2015,11,16,06,48,45.10
2015,11,16,06,49,43.50
2015,11,16,06,50,46.70
2015,11,16,06,51,48.30
2015,11,16,06,52,45.10
2015,11,16,06,53,46.70
2015,11,16,06,54,48.30
2015,11,16,06,55,46.70
2015,11,16,06,56,45.10
2015,11,16,06,57,46.70
2015,11,16,06,58,45.10
2015,11,16,06,59,45.10
2015,11,16,07,00,43.50
2015,11,16,07,01,46.70
2015,11,16,07,02,45.10
2015,11,16,07,03,45.10
2015,11,16,07,04,40.20
2015,11,16,07,05,45.10
2015,11,16,07,06,46.70
2015,11,16,07,07,46.70
2015,11,16,07,08,46.70
2015,11,16,07,09,46.70
2015,11,16,07,10,49.90
2015,11,16,07,11,45.10
2015,11,16,07,12,49.90
2015,11,16,07,13,46.70
2015,11,16,07,14,45.10
2015,11,16,07,15,53.10
2015,11,16,07,16,53.10
2015,11,16,07,17,51.50
2015,11,16,07,18,48.30
2015,11,16,07,19,54.70
2015,11,16,07,20,51.50
2015,11,16,07,21,54.70
2015,11,16,07,22,54.70
2015,11,16,07,23,56.30
2015,11,16,07,24,54.70
2015,11,16,07,25,54.70
2015,11,16,07,26,54.70
2015,11,16,07,27,56.30
2015,11,16,07,28,53.10
2015,11,16,07,29,54.70
2015,11,16,07,30,64.40
2015,11,16,07,31,62.70
2015,11,16,07,32,61.20
2015,11,16,07,33,56.30
2015,11,16,07,34,62.70
2015,11,16,07,35,59.50
2015,11,16,07,36,61.20
2015,11,16,07,37,62.70
2015,11,16,07,38,62.70
2015,11,16,07,39,62.70
2015,11,16,07,40,62.70
2015,11,16,07,41,64.40
2015,11,16,07,42,59.50
2015,11,16,07,43,61.20
2015,11,16,07,44,66.00
2015,11,16,07,45,64.40
2015,11,16,07,46,61.20
2015,11,16,07,47,62.70
2015,11,16,07,48,62.70
2015,11,16,07,49,59.50
2015,11,16,07,50,59.50
2015,11,16,07,51,66.00
2015,11,16,07,52,57.90
2015,11,16,07,53,62.70
2015,11,16,07,54,66.00
2015,11,16,07,55,69.20
2015,11,16,07,56,67.60
2015,11,16,07,57,64.40
2015,11,16,07,58,67.60
2015,11,16,07,59,66.00
2015,11,16,08,00,57.90
2015,11,16,08,01,62.70
2015,11,16,08,02,57.90
2015,11,16,08,03,62.70
2015,11,16,08,04,61.20
2015,11,16,08,05,62.70
2015,11,16,08,06,69.20
2015,11,16,08,07,64.40
2015,11,16,08,08,66.00
2015,11,16,08,09,66.00
2015,11,16,08,10,66.00
2015,11,16,08,11,64.40
2015,11,16,08,12,61.20
2015,11,16,08,13,64.40
2015,11,16,08,14,67.60
2015,11,16,08,15,64.40
2015,11,16,08,16,67.60
2015,11,16,08,17,67.60
2015,11,16,08,18,69.20
2015,11,16,08,19,66.00
2015,11,16,08,20,64.40
2015,11,16,08,21,64.40
2015,11,16,08,22,56.30
2015,11,16,08,23,67.60
2015,11,16,08,24,70.80
2015,11,16,08,25,70.80
2015,11,16,08,26,72.40
2015,11,16,08,27,67.60
2015,11,16,08,28,57.90
2015,11,16,08,29,59.50
2015,11,16,08,30,74.00
2015,11,16,08,31,74.00
2015,11,16,08,32,69.20
2015,11,16,08,33,57.90
2015,11,16,08,34,59.50
2015,11,16,08,35,66.00
2015,11,16,08,36,64.40
2015,11,16,08,37,59.50
2015,11,16,08,38,62.70
2015,11,16,08,39,66.00
2015,11,16,08,40,67.60
2015,11,16,08,41,64.40
2015,11,16,08,42,67.60
2015,11,16,08,43,67.60
2015,11,16,08,44,67.60
2015,11,16,08,45,64.40
2015,11,16,08,46,64.40
2015,11,16,08,47,61.20
2015,11,16,08,48,64.40
2015,11,16,08,49,64.40
2015,11,16,08,50,57.90
2015,11,16,08,51,66.00
2015,11,16,08,52,64.40
2015,11,16,08,53,62.70
2015,11,16,08,54,57.90
2015,11,16,08,55,64.40
2015,11,16,08,56,61.20
2015,11,16,08,57,57.90
2015,11,16,08,58,57.90
2015,11,16,08,59,59.50
2015,11,16,09,00,61.20
2015,11,16,09,01,56.30
2015,11,16,09,02,61.20
2015,11,16,09,03,66.00
2015,11,16,09,04,64.40
2015,11,16,09,05,54.70
2015,11,16,09,06,57.90
2015,11,16,09,07,64.40
2015,11,16,09,08,62.70
2015,11,16,09,09,64.40
2015,11,16,09,10,67.60
2015,11,16,09,11,61.20
2015,11,16,09,12,61.20
2015,11,16,09,13,56.30
2015,11,16,09,14,66.00
2015,11,16,09,15,67.60
2015,11,16,09,16,66.00
2015,11,16,09,17,70.80
2015,11,16,09,18,69.20
2015,11,16,09,19,72.40
2015,11,16,09,20,69.20
2015,11,16,09,21,62.70
2015,11,16,09,22,64.40
2015,11,16,09,23,62.70
2015,11,16,09,24,66.00
2015,11,16,09,25,66.00
2015,11,16,09,26,64.40
2015,11,16,09,27,62.70
2015,11,16,09,28,62.70
2015,11,16,09,29,64.40
2015,11,16,09,30,64.40
2015,11,16,09,31,64.40
2015,11,16,09,32,66.00
2015,11,16,09,33,62.70
2015,11,16,09,34,64.40
2015,11,16,09,35,62.70
2015,11,16,09,36,66.00
2015,11,16,09,37,69.20
2015,11,16,09,38,69.20
2015,11,16,09,39,64.40
2015,11,16,09,40,62.70
2015,11,16,09,41,61.20
2015,11,16,09,42,67.60
2015,11,16,09,43,67.60
2015,11,16,09,44,66.00
2015,11,16,09,45,64.40
2015,11,16,09,46,67.60
2015,11,16,09,47,64.40
2015,11,16,09,48,67.60
2015,11,16,09,49,66.00
2015,11,16,09,50,67.60
2015,11,16,09,51,66.00
2015,11,16,09,52,62.70
2015,11,16,09,53,62.70
2015,11,16,09,54,62.70
2015,11,16,09,55,66.00
2015,11,16,09,56,69.20
2015,11,16,09,57,69.20
2015,11,16,09,58,61.20
2015,11,16,09,59,61.20
2015,11,16,10,00,62.70
2015,11,16,10,01,59.50
2015,11,16,10,02,61.20
2015,11,16,10,03,62.70
2015,11,16,10,04,61.20
2015,11,16,10,05,54.70
2015,11,16,10,06,57.90
2015,11,16,10,07,53.10
2015,11,16,10,08,62.70
2015,11,16,10,09,64.40
2015,11,16,10,10,57.90
2015,11,16,10,11,57.90
2015,11,16,10,12,56.30
2015,11,16,10,13,56.30
2015,11,16,10,14,57.90
2015,11,16,10,15,57.90
2015,11,16,10,16,54.70
2015,11,16,10,17,56.30
2015,11,16,10,18,56.30
2015,11,16,10,19,54.70
2015,11,16,10,20,53.10
2015,11,16,10,21,53.10
2015,11,16,10,22,54.70
2015,11,16,10,23,56.30
2015,11,16,10,24,53.10
2015,11,16,10,25,54.70
2015,11,16,10,26,53.10
2015,11,16,10,27,49.90
2015,11,16,10,28,49.90
2015,11,16,10,29,51.50
2015,11,16,10,30,51.50
2015,11,16,10,31,48.30
2015,11,16,10,32,53.10
2015,11,16,10,33,49.90
2015,11,16,10,34,43.50
2015,11,16,10,35,51.50
2015,11,16,10,36,51.50
2015,11,16,10,37,53.10
2015,11,16,10,38,49.90
2015,11,16,10,39,49.90
2015,11,16,10,40,48.30
2015,11,16,10,41,48.30
2015,11,16,10,42,49.90
2015,11,16,10,43,49.90
2015,11,16,10,44,45.10
2015,11,16,10,45,46.70
2015,11,16,10,46,48.30
2015,11,16,10,47,46.70
2015,11,16,10,48,46.70
2015,11,16,10,49,49.90
2015,11,16,10,50,46.70
2015,11,16,10,51,49.90
2015,11,16,10,52,46.70
2015,11,16,10,53,48.30
2015,11,16,10,54,49.90
2015,11,16,10,55,48.30
2015,11,16,10,56,48.30
2015,11,16,10,57,46.70
2015,11,16,10,58,48.30
2015,11,16,10,59,48.30
2015,11,16,11,00,46.70
2015,11,16,11,01,49.90
2015,11,16,11,02,51.50
2015,11,16,11,03,46.70
2015,11,16,11,04,45.10
2015,11,16,11,05,49.90
2015,11,16,11,06,46.70
2015,11,16,11,07,51.50
2015,11,16,11,08,49.90
2015,11,16,11,09,49.90
2015,11,16,11,10,49.90
2015,11,16,11,11,51.50
2015,11,16,11,12,49.90
2015,11,16,11,13,49.90
2015,11,16,11,14,51.50
2015,11,16,11,15,53.10
2015,11,16,11,16,51.50
2015,11,16,11,17,48.30
2015,11,16,11,18,53.10
2015,11,16,11,19,51.50
2015,11,16,11,20,49.90
2015,11,16,11,21,49.90
2015,11,16,11,22,49.90
2015,11,16,11,23,46.70
2015,11,16,11,24,45.10
2015,11,16,11,25,48.30
2015,11,16,11,26,48.30
2015,11,16,11,27,46.70
2015,11,16,11,28,48.30
2015,11,16,11,29,48.30
2015,11,16,11,30,49.90
2015,11,16,11,31,48.30
2015,11,16,11,32,48.30
2015,11,16,11,33,46.70
2015,11,16,11,34,49.90
2015,11,16,11,35,49.90
2015,11,16,11,36,48.30
2015,11,16,11,37,49.90
2015,11,16,11,38,46.70
2015,11,16,11,39,45.10
2015,11,16,11,40,46.70
2015,11,16,11,41,46.70
2015,11,16,11,42,45.10
2015,11,16,11,43,43.50
2015,11,16,11,44,45.10
2015,11,16,11,45,48.30
2015,11,16,11,46,45.10
2015,11,16,11,47,45.10
2015,11,16,11,48,46.70
2015,11,16,11,49,46.70
2015,11,16,11,50,46.70
2015,11,16,11,51,46.70
2015,11,16,11,52,45.10
2015,11,16,11,53,45.10
2015,11,16,11,54,45.10
2015,11,16,11,55,48.30
2015,11,16,11,56,48.30
2015,11,16,11,57,49.90
2015,11,16,11,58,46.70
2015,11,16,11,59,46.70
2015,11,16,12,00,48.30
2015,11,16,12,01,48.30
2015,11,16,12,02,49.90
2015,11,16,12,03,49.90
2015,11,16,12,04,49.90
2015,11,16,12,05,49.90
2015,11,16,12,06,49.90
2015,11,16,12,07,49.90
2015,11,16,12,08,49.90
2015,11,16,12,09,49.90
2015,11,16,12,10,46.70
2015,11,16,12,11,46.70
2015,11,16,12,12,49.90
2015,11,16,12,13,51.50
2015,11,16,12,14,51.50
2015,11,16,12,15,53.10
2015,11,16,12,16,53.10
2015,11,16,12,17,54.70
2015,11,16,12,18,57.90
2015,11,16,12,19,54.70
2015,11,16,12,20,53.10
2015,11,16,12,21,51.50
2015,11,16,12,22,54.70
2015,11,16,12,23,54.70
2015,11,16,12,24,51.50
2015,11,16,12,25,51.50
2015,11,16,12,26,56.30
2015,11,16,12,27,59.50
2015,11,16,12,28,56.30
2015,11,16,12,29,53.10
2015,11,16,12,30,53.10
2015,11,16,12,31,53.10
2015,11,16,12,32,51.50
2015,11,16,12,33,54.70
2015,11,16,12,34,56.30
2015,11,16,12,35,54.70
2015,11,16,12,36,53.10
2015,11,16,12,37,53.10
2015,11,16,12,38,51.50
2015,11,16,12,39,56.30
2015,11,16,12,40,51.50
2015,11,16,12,41,54.70
2015,11,16,12,42,54.70
2015,11,16,12,43,51.50
2015,11,16,12,44,56.30
2015,11,16,12,45,56.30
2015,11,16,12,46,59.50
2015,11,16,12,47,56.30
2015,11,16,12,48,53.10
2015,11,16,12,49,59.50
2015,11,16,12,50,59.50
2015,11,16,12,51,59.50
2015,11,16,12,52,56.30
2015,11,16,12,53,54.70
2015,11,16,12,54,56.30
2015,11,16,12,55,62.70
2015,11,16,12,56,62.70
2015,11,16,12,57,61.20
2015,11,16,12,58,57.90
2015,11,16,12,59,61.20
2015,11,16,13,00,57.90
2015,11,16,13,01,59.50
2015,11,16,13,02,56.30
2015,11,16,13,03,62.70
2015,11,16,13,04,61.20
2015,11,16,13,05,62.70
2015,11,16,13,06,64.40
2015,11,16,13,07,66.00
2015,11,16,13,08,61.20
2015,11,16,13,09,62.70
2015,11,16,13,10,61.20
2015,11,16,13,11,56.30
2015,11,16,13,12,59.50
2015,11,16,13,13,64.40
2015,11,16,13,14,62.70
2015,11,16,13,15,62.70
2015,11,16,13,16,64.40
2015,11,16,13,17,64.40
2015,11,16,13,18,59.50
2015,11,16,13,19,59.50
2015,11,16,13,20,64.40
2015,11,16,13,21,66.00
2015,11,16,13,22,64.40
2015,11,16,13,23,59.50
2015,11,16,13,24,61.20
2015,11,16,13,25,62.70
2015,11,16,13,26,64.40
2015,11,16,13,27,61.20
2015,11,16,13,28,59.50
2015,11,16,13,29,62.70
2015,11,16,13,30,64.40
2015,11,16,13,31,62.70
2015,11,16,13,32,64.40
2015,11,16,13,33,61.20
2015,11,16,13,34,64.40
2015,11,16,13,35,62.70
2015,11,16,13,36,59.50
2015,11,16,13,37,62.70
2015,11,16,13,38,64.40
2015,11,16,13,39,62.70
2015,11,16,13,40,61.20
2015,11,16,13,41,62.70
2015,11,16,13,42,64.40
2015,11,16,13,43,66.00
2015,11,16,13,44,62.70
2015,11,16,13,45,64.40
2015,11,16,13,46,62.70
2015,11,16,13,47,61.20
2015,11,16,13,48,66.00
2015,11,16,13,49,62.70
2015,11,16,13,50,56.30
2015,11,16,13,51,66.00
2015,11,16,13,52,64.40
2015,11,16,13,53,62.70
2015,11,16,13,54,62.70
2015,11,16,13,55,66.00
2015,11,16,13,56,64.40
2015,11,16,13,57,61.20
2015,11,16,13,58,66.00
2015,11,16,13,59,66.00
2015,11,16,14,00,67.60
2015,11,16,14,01,62.70
2015,11,16,14,02,61.20
2015,11,16,14,03,59.50
2015,11,16,14,04,57.90
2015,11,16,14,05,64.40
2015,11,16,14,06,64.40
2015,11,16,14,07,64.40
2015,11,16,14,08,62.70
2015,11,16,14,09,64.40
2015,11,16,14,10,62.70
2015,11,16,14,11,61.20
2015,11,16,14,12,56.30
2015,11,16,14,13,59.50
2015,11,16,14,14,61.20
2015,11,16,14,15,57.90
2015,11,16,14,16,62.70
2015,11,16,14,17,59.50
2015,11,16,14,18,61.20
2015,11,16,14,19,54.70
2015,11,16,14,20,57.90
2015,11,16,14,21,54.70
2015,11,16,14,22,54.70
2015,11,16,14,23,54.70
2015,11,16,14,24,61.20
2015,11,16,14,25,61.20
2015,11,16,14,26,54.70
2015,11,16,14,27,53.10
2015,11,16,14,28,56.30
2015,11,16,14,29,56.30
2015,11,16,14,30,56.30
2015,11,16,14,31,51.50
2015,11,16,14,32,56.30
2015,11,16,14,33,56.30
2015,11,16,14,34,53.10
2015,11,16,14,35,49.90
2015,11,16,14,36,54.70
2015,11,16,14,37,51.50
2015,11,16,14,38,51.50
2015,11,16,14,39,49.90
2015,11,16,14,40,48.30
2015,11,16,14,41,49.90
2015,11,16,14,42,49.90
2015,11,16,14,43,49.90
2015,11,16,14,44,51.50
2015,11,16,14,45,51.50
2015,11,16,14,46,48.30
2015,11,16,14,47,46.70
2015,11,16,14,48,48.30
2015,11,16,14,49,48.30
2015,11,16,14,50,51.50
2015,11,16,14,51,48.30
2015,11,16,14,52,46.70
2015,11,16,14,53,46.70
2015,11,16,14,54,48.30
2015,11,16,14,55,49.90
2015,11,16,14,56,49.90
2015,11,16,14,57,51.50
2015,11,16,14,58,49.90
2015,11,16,14,59,51.50
2015,11,16,15,00,48.30
2015,11,16,15,01,49.90
2015,11,16,15,02,46.70
2015,11,16,15,03,49.90
2015,11,16,15,04,46.70
2015,11,16,15,05,48.30
2015,11,16,15,06,46.70
2015,11,16,15,07,46.70
2015,11,16,15,08,48.30
2015,11,16,15,09,51.50
2015,11,16,15,10,48.30
2015,11,16,15,11,48.30
2015,11,16,15,12,49.90
2015,11,16,15,13,48.30
2015,11,16,15,14,48.30
2015,11,16,15,15,53.10
2015,11,16,15,16,48.30
2015,11,16,15,17,48.30
2015,11,16,15,18,48.30
2015,11,16,15,19,48.30
2015,11,16,15,20,48.30
2015,11,16,15,21,45.10
2015,11,16,15,22,46.70
2015,11,16,15,23,45.10
2015,11,16,15,24,43.50
2015,11,16,15,25,43.50
2015,11,16,15,26,41.80
2015,11,16,15,27,41.80
2015,11,16,15,28,41.80
2015,11,16,15,29,43.50
2015,11,16,15,30,38.60
2015,11,16,15,31,43.50
2015,11,16,15,32,43.50
2015,11,16,15,33,43.50
2015,11,16,15,34,40.20
2015,11,16,15,35,43.50
2015,11,16,15,36,41.80
2015,11,16,15,37,41.80
2015,11,16,15,38,37.00
2015,11,16,15,39,38.60
2015,11,16,15,40,37.00
2015,11,16,15,41,38.60
2015,11,16,15,42,37.00
2015,11,16,15,43,41.80
2015,11,16,15,44,41.80
2015,11,16,15,45,38.60
2015,11,16,15,46,38.60
2015,11,16,15,47,37.00
2015,11,16,15,48,33.80
2015,11,16,15,49,33.80
2015,11,16,15,50,33.80
2015,11,16,15,51,35.40
2015,11,16,15,52,35.40
2015,11,16,15,53,33.80
2015,11,16,15,54,35.40
2015,11,16,15,55,38.60
2015,11,16,15,56,38.60
2015,11,16,15,57,35.40
2015,11,16,15,58,38.60
2015,11,16,15,59,37.00
2015,11,16,16,00,33.80
2015,11,16,16,01,33.80
2015,11,16,16,02,35.40
2015,11,16,16,03,33.80
2015,11,16,16,04,37.00
2015,11,16,16,05,35.40
2015,11,16,16,06,37.00
2015,11,16,16,07,35.40
2015,11,16,16,08,40.20
2015,11,16,16,09,38.60
2015,11,16,16,10,37.00
2015,11,16,16,11,37.00
2015,11,16,16,12,38.60
2015,11,16,16,13,37.00
2015,11,16,16,14,37.00
2015,11,16,16,15,37.00
2015,11,16,16,16,35.40
2015,11,16,16,17,37.00
2015,11,16,16,18,35.40
2015,11,16,16,19,37.00
2015,11,16,16,20,38.60
2015,11,16,16,21,38.60
2015,11,16,16,22,37.00
2015,11,16,16,23,38.60
2015,11,16,16,24,37.00
2015,11,16,16,25,38.60
2015,11,16,16,26,37.00
2015,11,16,16,27,37.00
2015,11,16,16,28,37.00
2015,11,16,16,29,37.00
2015,11,16,16,30,35.40
2015,11,16,16,31,35.40
2015,11,16,16,32,33.80
2015,11,16,16,33,33.80
2015,11,16,16,34,35.40
2015,11,16,16,35,40.20
2015,11,16,16,36,38.60
2015,11,16,16,37,40.20
2015,11,16,16,38,40.20
2015,11,16,16,39,41.80
2015,11,16,16,40,41.80
2015,11,16,16,41,41.80
2015,11,16,16,42,38.60
2015,11,16,16,43,38.60
2015,11,16,16,44,41.80
2015,11,16,16,45,38.60
2015,11,16,16,46,37.00
2015,11,16,16,47,37.00
2015,11,16,16,48,38.60
2015,11,16,16,49,40.20
2015,11,16,16,50,45.10
2015,11,16,16,51,40.20
2015,11,16,16,52,41.80
2015,11,16,16,53,40.20
2015,11,16,16,54,38.60
2015,11,16,16,55,40.20
2015,11,16,16,56,38.60
2015,11,16,16,57,37.00
2015,11,16,16,58,35.40
2015,11,16,16,59,41.80
2015,11,16,17,00,40.20
2015,11,16,17,01,38.60
2015,11,16,17,02,38.60
2015,11,16,17,03,43.50
2015,11,16,17,04,41.80
2015,11,16,17,05,41.80
2015,11,16,17,06,45.10
2015,11,16,17,07,48.30
2015,11,16,17,08,48.30
2015,11,16,17,09,43.50
2015,11,16,17,10,43.50
2015,11,16,17,11,41.80
2015,11,16,17,12,40.20
2015,11,16,17,13,40.20
2015,11,16,17,14,38.60
2015,11,16,17,15,40.20
2015,11,16,17,16,41.80
2015,11,16,17,17,45.10
2015,11,16,17,18,45.10
2015,11,16,17,19,45.10
2015,11,16,17,20,43.50
2015,11,16,17,21,46.70
2015,11,16,17,22,45.10
2015,11,16,17,23,40.20
2015,11,16,17,24,41.80
2015,11,16,17,25,40.20
2015,11,16,17,26,38.60
2015,11,16,17,27,40.20
2015,11,16,17,28,40.20
2015,11,16,17,29,38.60
2015,11,16,17,30,40.20
2015,11,16,17,31,41.80
2015,11,16,17,32,40.20
2015,11,16,17,33,40.20
2015,11,16,17,34,38.60
2015,11,16,17,35,40.20
2015,11,16,17,36,38.60
2015,11,16,17,37,40.20
2015,11,16,17,38,38.60
2015,11,16,17,39,38.60
2015,11,16,17,40,37.00
2015,11,16,17,41,37.00
2015,11,16,17,42,35.40
2015,11,16,17,43,33.80
2015,11,16,17,44,33.80
2015,11,16,17,45,33.80
2015,11,16,17,46,33.80
2015,11,16,17,47,33.80
2015,11,16,17,48,33.80
2015,11,16,17,49,33.80
2015,11,16,17,50,40.20
2015,11,16,17,51,40.20
2015,11,16,17,52,37.00
2015,11,16,17,53,37.00
2015,11,16,17,54,37.00
2015,11,16,17,55,37.00
2015,11,16,17,56,37.00
2015,11,16,17,57,38.60
2015,11,16,17,58,37.00
2015,11,16,17,59,38.60
2015,11,16,18,00,38.60
2015,11,16,18,01,38.60
2015,11,16,18,02,37.00
2015,11,16,18,03,37.00